TK981 LTCK-LTCI

Flight info

Callsign TK981
Flight time 0h 18m
Altitude 21000
Route TUMKU DCT BEYAZ DCT VAKIT DCT EVTER
Aircraft C700/M-SBDGHM1RWXY/LB2

Departure

Time 2026-05-08 04:56
Airport Muş Airport (LTCK)

Arrival

Time 2026-05-08 05:14
Airport Van Ferit Melen Airport (LTCI)
Time Latitude Longitude Altitude Speed Heading
2026-05-08 04:54 38.75549 41.64429 4153 ft 14 kts 219°
2026-05-08 04:54 38.75477 41.64346 4151 ft 16 kts 223°
2026-05-08 04:54 38.75402 41.64260 4150 ft 12 kts 213°
2026-05-08 04:54 38.75366 41.64250 4150 ft 0 kts 172°
2026-05-08 04:55 38.75357 41.64254 4150 ft 4 kts 160°
2026-05-08 04:55 38.75334 41.64284 4151 ft 0 kts 117°
2026-05-08 04:55 38.75334 41.64285 4151 ft 0 kts 117°
2026-05-08 04:55 38.75324 41.64311 4151 ft 17 kts 116°
2026-05-08 04:56 38.75148 41.64769 4152 ft 109 kts 117°
2026-05-08 04:56 38.74693 41.65951 4351 ft 175 kts 115°
2026-05-08 04:56 38.74314 41.67427 5370 ft 176 kts 92°
2026-05-08 04:56 38.74086 41.68975 6230 ft 193 kts 118°
2026-05-08 04:57 38.73109 41.70498 6202 ft 246 kts 131°
2026-05-08 04:57 38.72148 41.72216 7452 ft 224 kts 120°
2026-05-08 04:57 38.71370 41.74019 8930 ft 244 kts 117°
2026-05-08 04:57 38.70521 41.76009 10112 ft 271 kts 118°
2026-05-08 04:58 38.69541 41.78227 11239 ft 299 kts 119°
2026-05-08 04:58 38.68459 41.80643 12442 ft 324 kts 119°
2026-05-08 04:58 38.67330 41.83185 14105 ft 333 kts 119°
2026-05-08 04:58 38.66176 41.85793 15479 ft 345 kts 119°
2026-05-08 04:59 38.64971 41.88506 16947 ft 354 kts 119°
2026-05-08 04:59 38.63730 41.91296 18354 ft 365 kts 119°
2026-05-08 04:59 38.62459 41.94149 19504 ft 374 kts 120°
2026-05-08 04:59 38.61171 41.97041 20565 ft 382 kts 120°
2026-05-08 05:00 38.59795 42.00128 20779 ft 415 kts 120°
2026-05-08 05:00 38.58320 42.03431 20793 ft 447 kts 120°
2026-05-08 05:00 38.56750 42.06999 20791 ft 460 kts 117°
2026-05-08 05:00 38.55588 42.10667 20773 ft 432 kts 107°
2026-05-08 05:01 38.54917 42.14329 20776 ft 419 kts 98°
2026-05-08 05:01 38.54623 42.18121 20784 ft 441 kts 93°
2026-05-08 05:01 38.54374 42.22060 20793 ft 454 kts 94°
2026-05-08 05:01 38.54102 42.26081 20797 ft 453 kts 94°
2026-05-08 05:02 38.53832 42.30086 20796 ft 451 kts 94°
2026-05-08 05:02 38.53569 42.34080 20796 ft 450 kts 94°
2026-05-08 05:02 38.53306 42.38067 20798 ft 451 kts 94°
2026-05-08 05:02 38.53036 42.42068 20797 ft 449 kts 94°
2026-05-08 05:03 38.52774 42.45891 20356 ft 421 kts 94°
2026-05-08 05:03 38.52526 42.49560 19145 ft 417 kts 94°
2026-05-08 05:03 38.52279 42.53217 18049 ft 408 kts 94°
2026-05-08 05:03 38.52033 42.56795 16986 ft 402 kts 94°
2026-05-08 05:04 38.51794 42.60258 16893 ft 392 kts 94°
2026-05-08 05:04 38.51548 42.63837 16902 ft 416 kts 94°
2026-05-08 05:04 38.51290 42.67572 16900 ft 425 kts 94°
2026-05-08 05:04 38.51028 42.71290 16896 ft 412 kts 94°
2026-05-08 05:05 38.50776 42.74839 16885 ft 390 kts 95°
2026-05-08 05:05 38.50294 42.78144 16875 ft 367 kts 105°
2026-05-08 05:05 38.49398 42.81138 16289 ft 356 kts 116°
2026-05-08 05:05 38.48188 42.83844 15654 ft 347 kts 121°
2026-05-08 05:06 38.46970 42.86463 15052 ft 340 kts 121°
2026-05-08 05:06 38.45787 42.89040 14440 ft 333 kts 120°
2026-05-08 05:06 38.44637 42.91545 13829 ft 328 kts 120°
2026-05-08 05:06 38.43489 42.94030 13228 ft 321 kts 120°
2026-05-08 05:07 38.42366 42.96456 12661 ft 314 kts 120°
2026-05-08 05:07 38.41267 42.98833 12097 ft 308 kts 120°
2026-05-08 05:07 38.40183 43.01180 11554 ft 303 kts 120°
2026-05-08 05:07 38.39116 43.03483 11005 ft 299 kts 121°
2026-05-08 05:08 38.38080 43.05721 10490 ft 295 kts 121°
2026-05-08 05:08 38.37044 43.07954 9950 ft 291 kts 121°
2026-05-08 05:08 38.36020 43.10162 9421 ft 286 kts 121°
2026-05-08 05:08 38.35014 43.12331 8899 ft 281 kts 120°
2026-05-08 05:09 38.34027 43.14463 8443 ft 276 kts 120°
2026-05-08 05:09 38.33073 43.16523 8214 ft 265 kts 120°
2026-05-08 05:09 38.32185 43.18475 8195 ft 245 kts 116°
2026-05-08 05:09 38.31899 43.20515 8194 ft 229 kts 81°
2026-05-08 05:10 38.32570 43.22260 8199 ft 218 kts 44°
2026-05-08 05:10 38.35390 43.22734 8211 ft 223 kts 330°
2026-05-08 05:10 38.36571 43.21457 8214 ft 224 kts 323°
2026-05-08 05:11 38.38011 43.20696 8217 ft 225 kts 351°
2026-05-08 05:11 38.39510 43.20899 8142 ft 221 kts 23°
2026-05-08 05:11 38.40660 43.22231 7881 ft 228 kts 57°
2026-05-08 05:11 38.41259 43.24082 7825 ft 213 kts 76°
2026-05-08 05:12 38.41526 43.25488 8103 ft 141 kts 73°
2026-05-08 05:12 38.41807 43.26679 7661 ft 138 kts 72°
2026-05-08 05:12 38.42174 43.27774 7274 ft 135 kts 62°
2026-05-08 05:12 38.42651 43.28811 6863 ft 133 kts 58°
2026-05-08 05:13 38.43257 43.29689 6402 ft 133 kts 40°
2026-05-08 05:13 38.43963 43.30380 6105 ft 124 kts 37°
2026-05-08 05:13 38.44643 43.31070 5769 ft 127 kts 36°
2026-05-08 05:13 38.45344 43.31759 5593 ft 125 kts 36°
2026-05-08 05:14 38.46032 43.32440 5439 ft 123 kts 36°
2026-05-08 05:14 38.46596 43.32989 5436 ft 64 kts 38°
2026-05-08 05:14 38.46803 43.33201 5443 ft 30 kts 39°
2026-05-08 05:14 38.46953 43.33353 5449 ft 20 kts 37°
2026-05-08 05:15 38.47041 43.33453 5451 ft 15 kts 71°
2026-05-08 05:15 38.46996 43.33575 5450 ft 18 kts 127°
2026-05-08 05:15 38.46963 43.33633 5449 ft 2 kts 112°
2026-05-08 05:15 38.46959 43.33654 5449 ft 3 kts 101°
2026-05-08 05:16 38.46951 43.33689 5450 ft 5 kts 117°